SV7RNH Weather Reports


Display with metric or nautical units.
time (UTC)temp
F
wind
direction
speed
MPH
gust
MPH
rain 1hr
in
rain 24hr
in
rain mn
in
humidity
%
barometer
mb
20260905173004 87 158 2.0 6.0 0.00 0.00 0.00 25 1015.8
20260905172503 87 159 2.0 6.0 0.00 0.00 0.00 27 1015.7
20260905172004 87 135 2.0 4.0 0.00 0.00 0.00 30 1015.6
20260905171503 87 145 2.0 4.0 0.00 0.00 0.00 30 1015.7
20260905171004 87 140 2.0 4.0 0.00 0.00 0.00 30 1015.8
20260905170504 87 0 0.0 4.0 0.00 0.00 0.00 29 1015.7
20260905170003 87 0 0.0 4.0 0.00 0.00 0.00 30 1015.7
20260905165503 87 300 1.0 4.0 0.00 0.00 0.00 31 1015.7
20260905165004 87 12 2.0 4.0 0.00 0.00 0.00 32 1015.7
20260905164503 88 42 2.0 4.0 0.00 0.00 0.00 31 1015.6
20260905164003 88 144 1.0 5.0 0.00 0.00 0.00 29 1015.4
20260905163503 88 316 1.0 5.0 0.00 0.00 0.00 27 1015.4
20260905163004 88 308 1.0 5.0 0.00 0.00 0.00 27 1015.5
20260905162503 89 345 1.0 7.0 0.00 0.00 0.00 24 1015.4
20260905162003 89 91 1.0 7.0 0.00 0.00 0.00 22 1015.5
20260905161503 89 136 1.0 7.0 0.00 0.00 0.00 22 1015.5
20260905161004 89 148 2.0 9.0 0.00 0.00 0.00 23 1015.4
20260905160503 89 153 1.0 9.0 0.00 0.00 0.00 24 1015.6
20260905160003 90 85 2.0 5.0 0.00 0.00 0.00 27 1015.5
20260905155504 90 282 2.0 8.0 0.00 0.00 0.00 24 1015.6
20260905155004 91 278 2.0 8.0 0.00 0.00 0.00 22 1015.6
20260905154503 92 59 3.0 5.0 0.00 0.00 0.00 18 1015.5
20260905154004 92 107 1.0 8.0 0.00 0.00 0.00 17 1015.5
20260905153503 93 308 2.0 8.0 0.00 0.00 0.00 19 1015.5
20260905153003 94 296 3.0 8.0 0.00 0.00 0.00 18 1015.6
20260905152504 95 162 4.0 8.0 0.00 0.00 0.00 15 1015.6
20260905152003 96 99 2.0 4.0 0.00 0.00 0.00 14 1015.4
20260905151504 96 165 2.0 5.0 0.00 0.00 0.00 12 1015.5
20260905151003 96 253 1.0 6.0 0.00 0.00 0.00 15 1015.4
20260905150503 98 277 3.0 6.0 0.00 0.00 0.00 16 1015.3
20260905150003 98 70 2.0 5.0 0.00 0.00 0.00 15 1015.3
20260905145504 99 137 1.0 5.0 0.00 0.00 0.00 13 1015.3
20260905145003 99 0 0.0 5.0 0.00 0.00 0.00 12 1015.3
20260905144503 100 131 2.0 4.0 0.00 0.00 0.00 11 1015.4
20260905144004 100 175 2.0 5.0 0.00 0.00 0.00 12 1015.4
20260905143504 99 160 1.0 6.0 0.00 0.00 0.00 13 1015.5
20260905143003 100 92 4.0 6.0 0.00 0.00 0.00 11 1015.5
20260905142503 100 132 1.0 7.0 0.00 0.00 0.00 10 1015.6
20260905142003 99 132 2.0 7.0 0.00 0.00 0.00 10 1015.6
20260905141504 100 119 2.0 7.0 0.00 0.00 0.00 10 1015.7
20260905141003 101 195 3.0 6.0 0.00 0.00 0.00 10 1015.6
20260905140503 102 231 3.0 6.0 0.00 0.00 0.00 10 1015.7
20260905140003 102 263 2.0 7.0 0.00 0.00 0.00 10 1015.7
20260905135504 101 304 1.0 7.0 0.00 0.00 0.00 10 1015.7
20260905135003 101 256 2.0 8.0 0.00 0.00 0.00 10 1015.7
20260905134503 100 252 2.0 8.0 0.00 0.00 0.00 10 1015.8
20260905134004 101 263 2.0 6.0 0.00 0.00 0.00 10 1016.0
20260905133503 101 260 2.0 7.0 0.00 0.00 0.00 10 1015.9
20260905133004 101 266 3.0 7.0 0.00 0.00 0.00 10 1016.1
20260905132504 100 277 2.0 7.0 0.00 0.00 0.00 10 1016.2
20260905132003 100 285 3.0 7.0 0.00 0.00 0.00 10 1016.1
20260905131503 100 301 2.0 10.0 0.00 0.00 0.00 10 1016.2
20260905131004 100 307 2.0 10.0 0.00 0.00 0.00 10 1016.2
20260905130503 100 304 4.0 9.0 0.00 0.00 0.00 10 1016.4
20260905130004 101 310 4.0 9.0 0.00 0.00 0.00 10 1016.4
20260905125504 101 130 1.0 5.0 0.00 0.00 0.00 10 1016.2
20260905125003 101 135 1.0 5.0 0.00 0.00 0.00 10 1016.4
20260905124503 101 141 1.0 7.0 0.00 0.00 0.00 10 1016.4
20260905124003 100 226 1.0 7.0 0.00 0.00 0.00 10 1016.5
20260905123503 100 283 3.0 7.0 0.00 0.00 0.00 10 1016.6
20260905123003 100 243 3.0 7.0 0.00 0.00 0.00 10 1016.7
20260905122504 100 165 2.0 7.0 0.00 0.00 0.00 10 1016.7
20260905122003 100 127 2.0 8.0 0.00 0.00 0.00 10 1016.7
20260905121503 100 122 2.0 8.0 0.00 0.00 0.00 10 1016.8
20260905121003 100 125 2.0 7.0 0.00 0.00 0.00 10 1016.8
20260905120504 100 269 1.0 8.0 0.00 0.00 0.00 10 1016.8
20260905120004 100 281 2.0 8.0 0.00 0.00 0.00 10 1017.0
20260905115503 101 241 4.0 8.0 0.00 0.00 0.00 10 1017.0
20260905115003 101 231 2.0 6.0 0.00 0.00 0.00 10 1017.0
20260905114504 100 0 0.0 6.0 0.00 0.00 0.00 10 1017.0
20260905114004 100 306 3.0 5.0 0.00 0.00 0.00 10 1017.1
20260905113503 99 81 1.0 6.0 0.00 0.00 0.00 10 1017.2
20260905113004 99 103 1.0 6.0 0.00 0.00 0.00 10 1017.2
20260905112503 99 108 1.0 8.0 0.00 0.00 0.00 11 1017.2
20260905112003 98 153 2.0 8.0 0.00 0.00 0.00 11 1017.3
20260905111504 98 218 2.0 7.0 0.00 0.00 0.00 11 1017.3
20260905111004 99 147 2.0 7.0 0.00 0.00 0.00 10 1017.4
20260905110504 98 143 2.0 6.0 0.00 0.00 0.00 10 1017.4
20260905110003 98 141 3.0 6.0 0.00 0.00 0.00 10 1017.4
20260905105503 98 0 0.0 6.0 0.00 0.00 0.00 11 1017.4
20260905105004 98 106 2.0 7.0 0.00 0.00 0.00 12 1017.5
20260905104504 97 124 2.0 7.0 0.00 0.00 0.00 12 1017.5
20260905104003 97 147 4.0 7.0 0.00 0.00 0.00 12 1017.5
20260905103503 97 131 2.0 4.0 0.00 0.00 0.00 12 1017.6
20260905103003 97 151 1.0 7.0 0.00 0.00 0.00 14 1017.5
20260905102504 96 191 1.0 7.0 0.00 0.00 0.00 15 1017.6
20260905102003 96 137 2.0 6.0 0.00 0.00 0.00 15 1017.7
20260905101503 95 132 1.0 7.0 0.00 0.00 0.00 16 1017.7
20260905101004 95 132 2.0 7.0 0.00 0.00 0.00 16 1017.8
20260905100503 96 148 2.0 7.0 0.00 0.00 0.00 17 1017.9
20260905100003 95 267 2.0 7.0 0.00 0.00 0.00 17 1018.1
20260905095503 96 270 1.0 6.0 0.00 0.00 0.00 18 1018.1
20260905095004 95 223 2.0 7.0 0.00 0.00 0.00 17 1018.1
20260905094504 95 198 3.0 7.0 0.00 0.00 0.00 17 1018.2
20260905094003 96 0 0.0 8.0 0.00 0.00 0.00 19 1018.1
20260905093503 96 292 1.0 8.0 0.00 0.00 0.00 18 1018.1
20260905093003 96 53 4.0 8.0 0.00 0.00 0.00 18 1018.2
20260905092504 95 110 2.0 6.0 0.00 0.00 0.00 19 1018.2
20260905092003 95 275 2.0 6.0 0.00 0.00 0.00 19 1018.2
20260905091503 94 264 2.0 6.0 0.00 0.00 0.00 18 1018.3
20260905091003 95 262 1.0 6.0 0.00 0.00 0.00 19 1018.4
20260905090504 95 270 2.0 6.0 0.00 0.00 0.00 19 1018.4
20260905090003 94 296 2.0 4.0 0.00 0.00 0.00 21 1018.5
20260905085503 95 333 2.0 4.0 0.00 0.00 0.00 20 1018.5
20260905085004 94 0 0.0 4.0 0.00 0.00 0.00 21 1018.4
20260905084503 93 0 0.0 4.0 0.00 0.00 0.00 22 1018.5
20260905084003 92 241 1.0 5.0 0.00 0.00 0.00 23 1018.5
20260905083503 93 229 2.0 5.0 0.00 0.00 0.00 22 1018.5
20260905083004 94 113 2.0 3.0 0.00 0.00 0.00 22 1018.6
20260905082503 93 0 0.0 4.0 0.00 0.00 0.00 24 1018.5
20260905082003 91 294 1.0 4.0 0.00 0.00 0.00 26 1018.6
20260905081503 90 0 0.0 4.0 0.00 0.00 0.00 28 1018.6
20260905081004 89 0 0.0 4.0 0.00 0.00 0.00 29 1018.7
20260905080504 89 251 1.0 6.0 0.00 0.00 0.00 30 1018.7
20260905080003 88 238 1.0 7.0 0.00 0.00 0.00 31 1018.7
20260905075504 88 239 2.0 7.0 0.00 0.00 0.00 32 1018.7
20260905075003 88 233 3.0 6.0 0.00 0.00 0.00 32 1018.7
20260905074505 88 228 1.0 6.0 0.00 0.00 0.00 34 1018.6
20260905074004 87 238 3.0 6.0 0.00 0.00 0.00 35 1018.6
20260905073503 87 234 2.0 5.0 0.00 0.00 0.00 37 1018.6
20260905073003 87 231 2.0 6.0 0.00 0.00 0.00 37 1018.5
20260905072504 87 251 2.0 7.0 0.00 0.00 0.00 37 1018.5
20260905072004 87 270 3.0 7.0 0.00 0.00 0.00 37 1018.4
20260905071503 87 255 1.0 5.0 0.00 0.00 0.00 33 1018.5
20260905071004 87 232 1.0 5.0 0.00 0.00 0.00 33 1018.5
20260905070504 88 233 2.0 5.0 0.00 0.00 0.00 31 1018.5
20260905070004 87 240 1.0 4.0 0.00 0.00 0.00 30 1018.4
20260905065503 87 231 2.0 4.0 0.00 0.00 0.00 30 1018.3
20260905065004 87 234 2.0 4.0 0.00 0.00 0.00 30 1018.6
20260905064503 87 274 1.0 3.0 0.00 0.00 0.00 30 1018.5
20260905064004 87 0 0.0 2.0 0.00 0.00 0.00 29 1018.5
20260905063504 87 0 0.0 3.0 0.00 0.00 0.00 29 1018.5
20260905063003 86 0 0.0 3.0 0.00 0.00 0.00 30 1018.6
20260905062503 86 0 0.0 2.0 0.00 0.00 0.00 31 1018.6
20260905062004 86 0 0.0 2.0 0.00 0.00 0.00 32 1018.6
20260905061503 85 0 0.0 2.0 0.00 0.00 0.00 34 1018.6
20260905061004 85 0 0.0 2.0 0.00 0.00 0.00 34 1018.5
20260905060504 84 0 0.0 2.0 0.00 0.00 0.00 35 1018.6
20260905060003 84 0 0.0 2.0 0.00 0.00 0.00 36 1018.5
20260905055504 83 0 0.0 3.0 0.00 0.00 0.00 37 1018.4
20260905055004 83 0 0.0 3.0 0.00 0.00 0.00 37 1018.6
20260905054503 82 0 0.0 3.0 0.00 0.00 0.00 39 1018.4
20260905054003 81 213 1.0 3.0 0.00 0.00 0.00 39 1018.5
20260905053504 81 196 1.0 3.0 0.00 0.00 0.00 40 1018.5
20260905053004 80 95 1.0 3.0 0.00 0.00 0.00 41 1018.5
20260905052503 80 0 0.0 3.0 0.00 0.00 0.00 41 1018.5
20260905052004 79 31 1.0 5.0 0.00 0.00 0.00 42 1018.6
20260905051504 79 47 2.0 5.0 0.00 0.00 0.00 42 1018.4
20260905051004 79 0 0.0 4.0 0.00 0.00 0.00 43 1018.5
20260905050503 78 83 1.0 3.0 0.00 0.00 0.00 43 1018.4
20260905050004 78 0 0.0 2.0 0.00 0.00 0.00 44 1018.5
20260905045503 77 0 0.0 3.0 0.00 0.00 0.00 44 1018.4
20260905045004 77 0 0.0 3.0 0.00 0.00 0.00 45 1018.4
20260905044504 77 9 1.0 4.0 0.00 0.00 0.00 45 1018.4
20260905044003 76 0 0.0 4.0 0.00 0.00 0.00 45 1018.3
20260905043504 76 0 0.0 4.0 0.00 0.00 0.00 45 1018.3
20260905043003 76 0 0.0 4.0 0.00 0.00 0.00 45 1018.2
20260905042503 76 153 1.0 3.0 0.00 0.00 0.00 45 1018.2
20260905042003 76 164 1.0 3.0 0.00 0.00 0.00 46 1018.1
20260905041504 76 220 1.0 3.0 0.00 0.00 0.00 46 1018.1
20260905041003 76 203 1.0 3.0 0.00 0.00 0.00 46 1018.0
20260905040503 76 152 1.0 3.0 0.00 0.00 0.00 46 1017.9
20260905040004 76 0 0.0 3.0 0.00 0.00 0.00 46 1017.8
20260905035503 76 188 1.0 3.0 0.00 0.00 0.00 46 1017.7
20260905035004 76 0 0.0 3.0 0.00 0.00 0.00 46 1017.7
20260905034504 76 0 0.0 3.0 0.00 0.00 0.00 46 1017.6
20260905034005 76 0 0.0 4.0 0.00 0.00 0.00 46 1017.6
20260905033503 76 0 0.0 4.0 0.00 0.00 0.00 46 1017.7
20260905033004 76 32 2.0 4.0 0.00 0.00 0.00 46 1017.7
20260905032503 76 0 0.0 3.0 0.00 0.00 0.00 46 1017.7
20260905032003 76 0 0.0 3.0 0.00 0.00 0.00 46 1017.6
20260905031504 76 181 1.0 3.0 0.00 0.00 0.00 46 1017.5
20260905031003 76 168 1.0 2.0 0.00 0.00 0.00 46 1017.5
20260905030503 76 0 0.0 4.0 0.00 0.00 0.00 45 1017.7
20260905030003 76 177 1.0 4.0 0.00 0.00 0.00 45 1017.6
20260905025504 76 0 0.0 2.0 0.00 0.00 0.00 45 1017.6
20260905025003 76 208 1.0 4.0 0.00 0.00 0.00 45 1017.4
20260905024503 76 236 1.0 4.0 0.00 0.00 0.00 45 1017.4
20260905024005 76 271 2.0 4.0 0.00 0.00 0.00 45 1017.3
20260905023503 76 249 2.0 5.0 0.00 0.00 0.00 44 1017.3
20260905023003 77 198 1.0 5.0 0.00 0.00 0.00 43 1017.4
20260905022503 77 201 2.0 5.0 0.00 0.00 0.00 43 1017.4
20260905022004 77 22 2.0 4.0 0.00 0.00 0.00 43 1017.5
20260905021503 77 61 1.0 5.0 0.00 0.00 0.00 43 1017.4
20260905021003 77 0 0.0 5.0 0.00 0.00 0.00 43 1017.5
20260905020504 77 356 1.0 4.0 0.00 0.00 0.00 43 1017.3
20260905020003 78 0 0.0 4.0 0.00 0.00 0.00 42 1017.3
20260905015503 78 257 1.0 4.0 0.00 0.00 0.00 42 1017.3
20260905015004 78 164 1.0 3.0 0.00 0.00 0.00 41 1017.3
20260905014504 78 201 1.0 2.0 0.00 0.00 0.00 40 1017.3
20260905014003 78 304 1.0 2.0 0.00 0.00 0.00 40 1017.3
20260905013504 78 267 1.0 2.0 0.00 0.00 0.00 39 1017.4
20260905013003 78 225 1.0 2.0 0.00 0.00 0.00 39 1017.2
20260905012504 78 27 1.0 3.0 0.00 0.00 0.00 39 1017.2
20260905012004 78 0 0.0 3.0 0.00 0.00 0.00 39 1017.1
20260905011503 78 0 0.0 2.0 0.00 0.00 0.00 38 1017.1
20260905011003 78 0 0.0 2.0 0.00 0.00 0.00 39 1017.0
20260905010503 78 0 0.0 2.0 0.00 0.00 0.00 38 1017.1
20260905010004 78 0 0.0 2.0 0.00 0.00 0.00 37 1017.1
20260905005503 78 0 0.0 3.0 0.00 0.00 0.00 37 1017.2
20260905005003 78 0 0.0 4.0 0.00 0.00 0.00 37 1017.0
20260905004503 78 0 0.0 4.0 0.00 0.00 0.00 37 1017.0
20260905004003 78 55 1.0 4.0 0.00 0.00 0.00 37 1016.9
20260905003504 78 52 1.0 4.0 0.00 0.00 0.00 37 1016.9
20260905003004 78 165 2.0 4.0 0.00 0.00 0.00 37 1016.9
20260905002503 78 199 1.0 4.0 0.00 0.00 0.00 37 1016.8
20260905002004 78 245 2.0 4.0 0.00 0.00 0.00 37 1016.6
20260905001504 78 0 0.0 4.0 0.00 0.00 0.00 36 1016.7
20260905001003 78 286 1.0 4.0 0.00 0.00 0.00 36 1016.6
20260905000504 79 236 2.0 4.0 0.00 0.00 0.00 35 1016.7
20260905000004 78 217 1.0 4.0 0.00 0.00 0.00 35 1016.6
20260904235503 79 213 2.0 4.0 0.00 0.00 0.00 35 1016.6
20260904235003 79 0 0.0 3.0 0.00 0.00 0.00 36 1016.6
20260904234503 79 332 2.0 4.0 0.00 0.00 0.00 35 1016.6
20260904234004 79 295 1.0 5.0 0.00 0.00 0.00 36 1016.5
20260904233504 79 286 2.0 5.0 0.00 0.00 0.00 36 1016.5
20260904233003 79 258 2.0 4.0 0.00 0.00 0.00 36 1016.5
20260904232503 79 287 2.0 5.0 0.00 0.00 0.00 37 1016.5
20260904232003 78 302 2.0 7.0 0.00 0.00 0.00 37 1016.5
20260904231504 79 266 1.0 7.0 0.00 0.00 0.00 37 1016.4
20260904231004 79 217 2.0 5.0 0.00 0.00 0.00 37 1016.3
20260904230503 79 235 2.0 5.0 0.00 0.00 0.00 37 1016.5
20260904230004 80 291 2.0 5.0 0.00 0.00 0.00 35 1016.3
20260904225504 80 288 2.0 7.0 0.00 0.00 0.00 34 1016.3
20260904225003 80 301 1.0 7.0 0.00 0.00 0.00 32 1016.4
20260904224504 80 301 1.0 6.0 0.00 0.00 0.00 31 1016.4
20260904224004 80 260 2.0 6.0 0.00 0.00 0.00 30 1016.5
20260904223503 80 239 2.0 6.0 0.00 0.00 0.00 29 1016.4
20260904223003 80 270 1.0 5.0 0.00 0.00 0.00 27 1016.5
20260904222503 80 285 1.0 5.0 0.00 0.00 0.00 25 1016.6
20260904222004 81 285 2.0 4.0 0.00 0.00 0.00 22 1016.5
20260904221504 81 242 2.0 4.0 0.00 0.00 0.00 20 1016.4
20260904221003 82 261 2.0 4.0 0.00 0.00 0.00 19 1016.4
20260904220503 82 11 2.0 5.0 0.00 0.00 0.00 18 1016.6
20260904220004 82 30 1.0 5.0 0.00 0.00 0.00 18 1016.6
20260904215503 82 33 2.0 4.0 0.00 0.00 0.00 18 1016.6
20260904215004 82 35 2.0 4.0 0.00 0.00 0.00 18 1016.7
20260904214503 82 0 0.0 4.0 0.00 0.00 0.00 18 1016.7
20260904214003 82 25 2.0 4.0 0.00 0.00 0.00 18 1016.7
20260904213504 82 0 0.0 4.0 0.00 0.00 0.00 18 1016.7
20260904213003 82 0 0.0 4.0 0.00 0.00 0.00 17 1016.6
20260904212503 82 0 0.0 3.0 0.00 0.00 0.00 17 1016.7
20260904212004 82 0 0.0 2.0 0.00 0.00 0.00 18 1016.6
20260904211503 82 0 0.0 2.0 0.00 0.00 0.00 17 1016.5
20260904211004 82 0 0.0 4.0 0.00 0.00 0.00 17 1016.4
20260904210503 82 0 0.0 4.0 0.00 0.00 0.00 17 1016.5
20260904210003 83 0 0.0 4.0 0.00 0.00 0.00 17 1016.5
20260904205503 83 0 0.0 4.0 0.00 0.00 0.00 16 1016.4
20260904205004 83 91 1.0 4.0 0.00 0.00 0.00 16 1016.5
20260904204503 83 0 0.0 4.0 0.00 0.00 0.00 18 1016.4
20260904204003 83 159 1.0 4.0 0.00 0.00 0.00 23 1016.4
20260904203503 83 181 1.0 4.0 0.00 0.00 0.00 26 1016.3
20260904203004 83 0 0.0 4.0 0.00 0.00 0.00 24 1016.3
20260904202503 84 181 2.0 4.0 0.00 0.00 0.00 24 1016.2
20260904202004 84 166 2.0 5.0 0.00 0.00 0.00 21 1016.2
20260904201504 85 109 1.0 5.0 0.00 0.00 0.00 18 1016.1
20260904201004 85 0 0.0 4.0 0.00 0.00 0.00 14 1016.1
20260904200503 85 2 2.0 4.0 0.00 0.00 0.00 16 1016.1
20260904200003 85 0 0.0 4.0 0.00 0.00 0.00 14 1016.1
20260904195504 85 29 2.0 4.0 0.00 0.00 0.00 14 1016.0
20260904195003 85 0 0.0 4.0 0.00 0.00 0.00 13 1016.0
20260904194503 85 0 0.0 4.0 0.00 0.00 0.00 14 1016.0
20260904194003 85 119 1.0 3.0 0.00 0.00 0.00 14 1016.0
20260904193504 84 0 0.0 3.0 0.00 0.00 0.00 14 1016.1
20260904193003 84 0 0.0 2.0 0.00 0.00 0.00 15 1016.1
20260904192503 84 0 0.0 2.0 0.00 0.00 0.00 15 1016.1
20260904192004 84 0 0.0 2.0 0.00 0.00 0.00 14 1016.0
20260904191503 84 0 0.0 2.0 0.00 0.00 0.00 14 1016.1
20260904191004 85 0 0.0 1.0 0.00 0.00 0.00 14 1016.0
20260904190503 85 0 0.0 2.0 0.00 0.00 0.00 13 1016.0
20260904190004 85 0 0.0 2.0 0.00 0.00 0.00 13 1016.0
20260904185503 85 0 0.0 2.0 0.00 0.00 0.00 13 1016.0
20260904185003 86 0 0.0 2.0 0.00 0.00 0.00 12 1015.9
20260904184503 86 0 0.0 4.0 0.00 0.00 0.00 12 1015.9
20260904184004 86 55 1.0 4.0 0.00 0.00 0.00 12 1015.9
20260904183504 86 0 0.0 3.0 0.00 0.00 0.00 12 1015.8
20260904183003 86 53 2.0 4.0 0.00 0.00 0.00 13 1015.8
20260904182503 86 41 1.0 4.0 0.00 0.00 0.00 12 1015.8
20260904182004 86 0 0.0 3.0 0.00 0.00 0.00 12 1015.6
20260904181504 87 19 1.0 3.0 0.00 0.00 0.00 12 1015.5
20260904181003 87 30 1.0 3.0 0.00 0.00 0.00 11 1015.6
20260904180503 88 44 1.0 3.0 0.00 0.00 0.00 11 1015.4
20260904180004 88 18 1.0 3.0 0.00 0.00 0.00 10 1015.3
20260904175504 88 346 1.0 4.0 0.00 0.00 0.00 10 1015.3
20260904175004 89 0 0.0 4.0 0.00 0.00 0.00 10 1015.2
20260904174503 89 0 0.0 4.0 0.00 0.00 0.00 10 1015.2
20260904174003 89 0 0.0 3.0 0.00 0.00 0.00 10 1015.1
20260904173504 90 163 1.0 4.0 0.00 0.00 0.00 10 1015.2